Ellensburg, WA

8:56 PM PDT on May 22, 2017 (GMT -0700)
Bowers

Weather History for KELN - August, 2013

Change the Weather History Date:

Wednesday, August 28, 2013

  Actual Average (KYKM) Record (KYKM)
Temperature  
Mean Temperature 74 °F -  
Max Temperature 89 °F 82 °F 102 °F (1972)
Min Temperature 59 °F 49 °F 37 °F (1980)
Cooling Degree Days 9    
Growing Degree Days 24 (Base 50)    
Moisture  
Dew Point 55 °F    
Average Humidity 58    
Maximum Humidity 81    
Minimum Humidity 26    
Precipitation  
Precipitation 0.00 in - - ()
Sea Level Pressure  
Sea Level Pressure 29.82 in    
Wind  
Wind Speed 4 mph (NW)    
Max Wind Speed 13 mph    
Max Gust Speed -    
Visibility 10 miles    
Events Rain    
Averages and records for this station are not official NWS values.
T = Trace of Precipitation, MM = Missing Value Source: NWS Daily Summary

Daily Weather History Graph

Daily Weather History Graph

Search for Another Location

Airport or City:

Trip Planner

Search our weather history database for the weather conditions in past years. The results will help you decide how hot, cold, wet, or windy it might be!

Date:

Astronomy

Aug. 28, 2013 Rise Set
Actual Time 6:16 AM PDT 7:48 PM PDT
Civil Twilight 5:44 AM PDT 8:20 PM PDT
Nautical Twilight 5:05 AM PDT 8:59 PM PDT
Astronomical Twilight 4:23 AM PDT 9:40 PM PDT
Moon No Moon Rise 2:42 PM PDT (8/28)
Length of Visible Light 14h 35m
Length of Day
13h 32m
Last Quarter, 46% of the Moon is Illuminated
Aug 28
Last Quarter
Sep 5
New
Sep 12
First Quarter
Sep 19
Full
Sep 26
Last Quarter

Hourly Weather History & Observations

Time (PDT) Temp. Heat Index Dew Point Humidity Pressure Visibility Wind Dir Wind Speed Gust Speed Precip Events Conditions
12:53 AM 63.0 °F - 53.1 °F 70% 29.79 in 10.0 mi Calm Calm - N/A   Clear
1:53 AM 63.0 °F - 54.0 °F 72% 29.79 in 10.0 mi Calm Calm - N/A   Clear
2:53 AM 60.1 °F - 54.0 °F 80% 29.79 in 10.0 mi ENE 4.6 mph - N/A   Clear
3:53 AM 59.0 °F - 53.1 °F 81% 29.78 in 10.0 mi East 4.6 mph - N/A   Clear
4:53 AM 60.1 °F - 54.0 °F 80% 29.79 in 10.0 mi Calm Calm - N/A   Clear
5:53 AM 59.0 °F - 53.1 °F 81% 29.81 in 10.0 mi Calm Calm - N/A   Clear
6:53 AM 64.0 °F - 55.0 °F 73% 29.82 in 10.0 mi WSW 9.2 mph - N/A   Clear
7:53 AM 69.1 °F - 55.0 °F 61% 29.83 in 10.0 mi WNW 9.2 mph - N/A   Partly Cloudy
8:53 AM 73.0 °F - 55.9 °F 55% 29.83 in 10.0 mi WNW 12.7 mph - N/A   Scattered Clouds
9:53 AM 77.0 °F - 55.9 °F 48% 29.82 in 10.0 mi West 12.7 mph - N/A   Partly Cloudy
10:53 AM 81.0 °F 80.7 °F 55.0 °F 41% 29.83 in 10.0 mi West 10.4 mph - N/A   Clear
11:53 AM 86.0 °F - 50.0 °F 29% 29.83 in 10.0 mi Variable 3.5 mph - 0.00 in Rain Light Rain
12:53 PM 84.0 °F - 48.9 °F 29% 29.83 in 10.0 mi Calm Calm - 0.00 in   Partly Cloudy
1:53 PM 86.0 °F - 50.0 °F 29% 29.82 in 10.0 mi Variable 3.5 mph - 0.00 in   Partly Cloudy
2:53 PM 86.0 °F 84.7 °F 55.9 °F 36% 29.82 in 10.0 mi WNW 8.1 mph - N/A   Overcast
3:53 PM 89.1 °F - 50.0 °F 26% 29.81 in 10.0 mi Calm Calm - N/A   Clear
4:53 PM 84.0 °F 83.3 °F 57.0 °F 40% 29.82 in 10.0 mi NW 6.9 mph - N/A   Overcast
5:53 PM 81.0 °F 80.8 °F 55.9 °F 42% 29.83 in 10.0 mi NW 11.5 mph - N/A   Scattered Clouds
6:53 PM 73.0 °F - 60.1 °F 64% 29.85 in 10.0 mi NW 11.5 mph - 0.00 in   Scattered Clouds
7:53 PM 71.1 °F - 59.0 °F 66% 29.83 in 10.0 mi West 5.8 mph - N/A   Clear
8:53 PM 69.1 °F - 59.0 °F 70% 29.86 in 10.0 mi WNW 6.9 mph - N/A   Partly Cloudy
9:53 PM 70.0 °F - 57.9 °F 65% 29.87 in 10.0 mi WNW 3.5 mph - N/A   Clear
10:53 PM 69.1 °F - 57.9 °F 68% 29.86 in 10.0 mi Calm Calm - N/A   Clear
11:53 PM 64.9 °F - 57.0 °F 75% 29.88 in 10.0 mi NE 6.9 mph - N/A   Clear